Preview of NWS' New Version of Forecast
This preview is not operational and should not be used for support decisions.

Regional Weather Roundup (RWR)

Issued by National Weather Service (NWS)

                            
000
ASUS45 KBOI 152210
RWRID 

IDAHO REGIONAL WEATHER ROUNDUP
NATIONAL WEATHER SERVICE BOISE ID
300 PM MST FRI FEB 15 2019

NOTE: "FAIR" INDICATES FEW OR NO CLOUDS BELOW 12000 FEET
WITH NO SIGNIFICANT WEATHER AND/OR OBSTRUCTIONS TO VISIBILITY

IDZ012-014-152300-
SOUTHWEST IDAHO

  
CITY           SKY/WX    TMP DP  RH WIND       PRES   REMARKS
BOISE          CLOUDY    42  23  46 W10       29.71R                  
CALDWELL       CLOUDY    44  23  43 SW13      29.70R                  
MOUNTAIN HOME  PTSUNNY   44  22  43 W14       29.71S                  
$$

IDZ016-017-152300-
SOUTHCENTRAL IDAHO

  
CITY           SKY/WX    TMP DP  RH WIND       PRES   REMARKS
BURLEY         CLOUDY    32  26  78 S9        29.73R WCI  24          
JEROME         CLOUDY    36  25  64 SW6       29.72S WCI  31          
TWIN FALLS     CLOUDY    35  23  61 SW15      29.72R WCI  25          
$$

IDZ019>023-152300-
SOUTHEAST IDAHO

  
CITY           SKY/WX    TMP DP  RH WIND       PRES   REMARKS
IDAHO FALLS    TSTM      32  30  92 W15       29.65R BLWGSNOWWCI  22  
POCATELLO      SNOW      30  28  92 SW20      29.74R VSB 1/2 WCI  17  
REXBURG        HVY SNOW  33  29  85 SW16G33   29.63R VSB 1/4 WCI  23  
$$

IDZ006-010-011-018-031-032-152300-
CENTRAL IDAHO MOUNTAINS

  
CITY           SKY/WX    TMP DP  RH WIND       PRES   REMARKS
MCCALL         CLOUDY    29  21  72 SE10      29.58S WCI  20          
HAILEY         MOSUNNY   30  21  69 SW14G28   29.66F WCI  20          
STANLEY          N/A     27  11  51 VRB7      29.58S WCI  19          
SALMON         LGT SNOW  32  28  86 S12       29.56F FOG     WCI  23  
CHALLIS        CLOUDY    34  21  59 S7        29.55S WCI  28          
$$

IDZ002-004-006-007-026-152300-
NORTHERN IDAHO

  
CITY           SKY/WX    TMP DP  RH WIND       PRES   REMARKS
LEWISTON       CLOUDY    41  33  73 NW3       29.66R                  
LOWELL           N/A     35  35 100 CALM      29.68R                  
COEUR D'ALENE  LGT SNOW  35  31  85 SW7       29.61R FOG     WCI  29  
MULLAN PASS    SNOW      26  23  88 VRB5      29.46R VSB 1/4 WCI  20  
$$